Location: Ferchesar
(52.6477°N, 12.4298°E)
Time: 13:08:52
(UTC+01:00)

Altair - Pass Details

Date: 11 December 2021
Orbit: 1501 x 1683 km, 47.2° (Epoch: 27 January)

Event Time Altitude Azimuth Distance (km) Brightness Sun altitude
Rises 19:36:26 0° 284° (WNW) 4,715 11.1 -32.1°
Reaches altitude 10° 19:39:50 10° 276° (W) 3,708 10.4 -32.6°
Maximum altitude 19:47:54 35° 216° (SW) 2,255 8.5 -33.8°
Enters shadow 19:51:43 26° 175° (S) 2,639 8.6 -34.4°
